• In Kazakhstan
  • List of Countries
  • For 7 days
  • Water Temperature
  • Satellite Maps
  • Weather Map
  • News
  • Weather Widgets
  • user-avatar
    Login

    Hourly Weather Litiki

    Today, 27 June, Thursday

    Time Temperature Precipitation Wind Pressure Humidity
    00:00 +10°C° 0 mm 1 mps 747 mmHg 93%
    01:00 +10°C° 0 mm 1 mps 746 mmHg 93%
    02:00 +8°C° 0 mm 0 mps 746 mmHg 92%
    03:00 +9°C° 0 mm 0 mps 746 mmHg 92%
    04:00 +11°C° 0 mm 1 mps 745 mmHg 91%
    05:00 +12°C° 0 mm 1 mps 745 mmHg 91%
    06:00 +14°C° 0 mm 2 mps 744 mmHg 86%
    07:00 +15°C° 0 mm 2 mps 744 mmHg 81%
    08:00 +17°C° 0 mm 3 mps 743 mmHg 76%
    09:00 +18°C° 0 mm 4 mps 743 mmHg 71%
    10:00 +19°C° 0 mm 4 mps 742 mmHg 67%
    11:00 +20°C° 0 mm 5 mps 741 mmHg 63%
    12:00 +20°C° 0.1 mm 5 mps 741 mmHg 62%
    13:00 +20°C° 0.1 mm 5 mps 740 mmHg 61%
    14:00 +21°C° 0.1 mm 6 mps 739 mmHg 61%
    15:00 +20°C° 0.1 mm 5 mps 739 mmHg 65%
    16:00 +19°C° 0.1 mm 4 mps 738 mmHg 70%
    17:00 +19°C° 0.1 mm 4 mps 737 mmHg 75%
    18:00 +18°C° 0.1 mm 4 mps 736 mmHg 76%
    19:00 +17°C° 0.1 mm 4 mps 736 mmHg 77%
    20:00 +15°C° 0.1 mm 5 mps 736 mmHg 78%
    21:00 +15°C° 0.1 mm 5 mps 735 mmHg 80%
    22:00 +14°C° 0.1 mm 5 mps 734 mmHg 82%
    23:00 +14°C° 0.1 mm 6 mps 734 mmHg 84%

    Tomorrow, 28 June, Friday

    Time Temperature Precipitation Wind Pressure Humidity
    00:00 +14°C° 0.4 mm 6 mps 733 mmHg 87%
    01:00 +13°C° 0.4 mm 6 mps 733 mmHg 90%
    02:00 +13°C° 0.4 mm 6 mps 733 mmHg 93%
    03:00 +11°C° 0.8 mm 6 mps 733 mmHg 92%
    04:00 +10°C° 0.8 mm 6 mps 732 mmHg 91%
    05:00 +10°C° 0.8 mm 6 mps 732 mmHg 89%
    06:00 +11°C° 0.1 mm 6 mps 732 mmHg 84%
    07:00 +11°C° 0.1 mm 6 mps 733 mmHg 79%
    08:00 +13°C° 0.1 mm 6 mps 733 mmHg 74%
    09:00 +13°C° 0.9 mm 6 mps 733 mmHg 78%
    10:00 +13°C° 0.9 mm 5 mps 733 mmHg 82%
    11:00 +12°C° 0.9 mm 5 mps 733 mmHg 86%
    12:00 +12°C° 0.9 mm 4 mps 733 mmHg 88%
    13:00 +12°C° 0.9 mm 4 mps 733 mmHg 89%
    14:00 +11°C° 0.9 mm 4 mps 733 mmHg 91%
    15:00 +12°C° 0.3 mm 4 mps 733 mmHg 90%
    16:00 +12°C° 0.3 mm 4 mps 733 mmHg 89%
    17:00 +12°C° 0.3 mm 3 mps 733 mmHg 88%
    18:00 +12°C° 0 mm 4 mps 733 mmHg 88%
    19:00 +12°C° 0 mm 4 mps 733 mmHg 89%
    20:00 +10°C° 0 mm 5 mps 733 mmHg 89%
    21:00 +10°C° 0.3 mm 6 mps 733 mmHg 91%
    22:00 +10°C° 0.3 mm 7 mps 733 mmHg 93%
    23:00 +9°C° 0.3 mm 8 mps 733 mmHg 96%

    Day after tomorrow, 29 June, Saturday

    Time Temperature Precipitation Wind Pressure Humidity
    00:00 +9°C° 1 mm 8 mps 733 mmHg 96%
    01:00 +9°C° 1 mm 8 mps 733 mmHg 96%
    02:00 +8°C° 1 mm 7 mps 733 mmHg 96%
    03:00 +7°C° 0.7 mm 8 mps 733 mmHg 96%
    04:00 +7°C° 0.7 mm 8 mps 733 mmHg 95%
    05:00 +7°C° 0.7 mm 8 mps 732 mmHg 95%
    06:00 +6°C° 0.7 mm 8 mps 733 mmHg 95%
    07:00 +6°C° 0.7 mm 8 mps 733 mmHg 95%
    08:00 +6°C° 0.7 mm 8 mps 733 mmHg 95%
    09:00 +6°C° 0.2 mm 8 mps 734 mmHg 94%
    10:00 +6°C° 0.2 mm 7 mps 734 mmHg 93%
    11:00 +6°C° 0.2 mm 7 mps 735 mmHg 93%
    12:00 +6°C° 0.1 mm 7 mps 735 mmHg 91%
    13:00 +6°C° 0.1 mm 7 mps 735 mmHg 90%
    14:00 +6°C° 0.1 mm 8 mps 736 mmHg 88%
    15:00 +8°C° 0.1 mm 7 mps 736 mmHg 87%
    16:00 +8°C° 0.1 mm 6 mps 736 mmHg 85%
    17:00 +8°C° 0.1 mm 6 mps 737 mmHg 83%
    18:00 +8°C° 0 mm 5 mps 737 mmHg 82%
    19:00 +8°C° 0 mm 4 mps 737 mmHg 80%
    20:00 +10°C° 0 mm 3 mps 738 mmHg 78%
    21:00 +9°C° 0 mm 3 mps 738 mmHg 76%
    22:00 +9°C° 0 mm 3 mps 738 mmHg 75%
    23:00 +7°C° 0 mm 4 mps 738 mmHg 73%

    30 June, Sunday

    Time Temperature Precipitation Wind Pressure Humidity
    00:00 +7°C° 0 mm 4 mps 739 mmHg 76%
    01:00 +7°C° 0 mm 3 mps 739 mmHg 79%
    02:00 +5°C° 0 mm 3 mps 739 mmHg 82%
    03:00 +7°C° 0 mm 3 mps 739 mmHg 80%
    04:00 +8°C° 0 mm 3 mps 740 mmHg 79%
    05:00 +8°C° 0 mm 3 mps 740 mmHg 78%
    06:00 +10°C° 0 mm 3 mps 740 mmHg 74%
    07:00 +13°C° 0 mm 3 mps 741 mmHg 70%
    08:00 +16°C° 0 mm 3 mps 741 mmHg 66%
    09:00 +17°C° 0.1 mm 3 mps 741 mmHg 63%
    10:00 +18°C° 0.1 mm 3 mps 741 mmHg 60%
    11:00 +19°C° 0.1 mm 3 mps 741 mmHg 57%
    12:00 +19°C° 0.5 mm 3 mps 741 mmHg 62%
    13:00 +19°C° 0.5 mm 3 mps 741 mmHg 67%
    14:00 +19°C° 0.5 mm 3 mps 742 mmHg 72%
    15:00 +18°C° 0.8 mm 3 mps 742 mmHg 75%
    16:00 +18°C° 0.8 mm 3 mps 742 mmHg 79%
    17:00 +18°C° 0.8 mm 3 mps 742 mmHg 82%
    18:00 +16°C° 0.1 mm 3 mps 742 mmHg 84%
    19:00 +15°C° 0.1 mm 2 mps 743 mmHg 86%
    20:00 +14°C° 0.1 mm 1 mps 743 mmHg 88%
    21:00 +13°C° 0 mm 1 mps 743 mmHg 88%
    22:00 +12°C° 0 mm 2 mps 743 mmHg 88%
    23:00 +10°C° 0 mm 2 mps 744 mmHg 87%

    1 July, Monday

    Time Temperature Precipitation Wind Pressure Humidity
    00:00 +9°C° 0 mm 2 mps 744 mmHg 88%
    01:00 +9°C° 0 mm 1 mps 744 mmHg 88%
    02:00 +9°C° 0 mm 1 mps 744 mmHg 88%
    03:00 +10°C° 0 mm 1 mps 744 mmHg 86%
    04:00 +11°C° 0 mm 1 mps 744 mmHg 84%
    05:00 +11°C° 0 mm 0 mps 744 mmHg 83%
    06:00 +14°C° 0 mm 1 mps 744 mmHg 78%
    07:00 +15°C° 0 mm 1 mps 744 mmHg 73%
    08:00 +18°C° 0 mm 1 mps 743 mmHg 67%
    09:00 +18°C° 0 mm 2 mps 743 mmHg 62%
    10:00 +19°C° 0 mm 2 mps 743 mmHg 57%
    11:00 +21°C° 0 mm 3 mps 743 mmHg 52%
    12:00 +21°C° 0 mm 3 mps 742 mmHg 51%
    13:00 +22°C° 0 mm 3 mps 742 mmHg 51%
    14:00 +22°C° 0 mm 4 mps 742 mmHg 51%
    15:00 +22°C° 0 mm 4 mps 741 mmHg 56%
    16:00 +21°C° 0 mm 3 mps 741 mmHg 61%
    17:00 +21°C° 0 mm 3 mps 741 mmHg 66%
    18:00 +20°C° 0 mm 3 mps 740 mmHg 68%
    19:00 +18°C° 0 mm 4 mps 740 mmHg 69%
    20:00 +17°C° 0 mm 4 mps 740 mmHg 71%
    21:00 +15°C° 0.5 mm 4 mps 740 mmHg 74%
    22:00 +15°C° 0.5 mm 4 mps 739 mmHg 78%
    23:00 +14°C° 0.5 mm 4 mps 739 mmHg 81%

    2 July, Tuesday

    Time Temperature Precipitation Wind Pressure Humidity
    00:00 +14°C° 1 mm 4 mps 739 mmHg 86%
    01:00 +14°C° 1 mm 4 mps 738 mmHg 90%
    02:00 +14°C° 1 mm 4 mps 738 mmHg 95%
    03:00 +15°C° 1.3 mm 4 mps 738 mmHg 96%
    04:00 +16°C° 1.3 mm 3 mps 738 mmHg 96%
    05:00 +16°C° 1.3 mm 3 mps 738 mmHg 97%
    06:00 +17°C° 0.3 mm 3 mps 738 mmHg 95%
    07:00 +18°C° 0.3 mm 3 mps 738 mmHg 92%
    08:00 +19°C° 0.3 mm 2 mps 738 mmHg 90%
    09:00 +20°C° 0 mm 3 mps 738 mmHg 81%
    10:00 +22°C° 0 mm 3 mps 738 mmHg 72%
    11:00 +24°C° 0 mm 3 mps 738 mmHg 63%
    12:00 +24°C° 0 mm 3 mps 738 mmHg 62%
    13:00 +24°C° 0 mm 3 mps 738 mmHg 60%
    14:00 +25°C° 0 mm 3 mps 737 mmHg 59%
    15:00 +24°C° 0 mm 3 mps 737 mmHg 61%
    16:00 +24°C° 0 mm 2 mps 737 mmHg 63%
    17:00 +24°C° 0 mm 2 mps 737 mmHg 65%
    18:00 +21°C° 0 mm 2 mps 737 mmHg 68%
    19:00 +20°C° 0 mm 2 mps 737 mmHg 72%
    20:00 +18°C° 0 mm 2 mps 737 mmHg 76%
    21:00 +17°C° 0 mm 2 mps 737 mmHg 80%
    22:00 +15°C° 0 mm 2 mps 736 mmHg 84%
    23:00 +14°C° 0 mm 2 mps 736 mmHg 88%
    Show more